User: anonymous
Location: Caltech
(34.1382°N, 118.1253°W)
Time: 22:51:13
(UTC-07:00)
Language:

Iridium 65 - Orbit

View from above orbital plane
View from above orbital plane
View from above satellite
View from above satellite

Ground track
Ground track

The orbit data is extracted from the following two-line orbital elements,

1 25288U 98021D   14109.17546775  .00000581  00000-0  20044-3 0  7302
2 25288 086.3980 346.6663 0002252 105.4541 051.4127 14.34210827839468
Epoch (UTC): 19 April 2014 04:12:40
Eccentricity: 0.0002252
inclination: 86.3980°
perigee height: 776 km
apogee height: 779 km
right ascension of ascending node: 346.6663°
argument of perigee: 105.4541°
revolutions per day: 14.34210827
mean anomaly at epoch: 51.4127°
orbit number at epoch: 83946

The dashed part of the orbit path shows where the satellite is in the earth's shadow,  

DLR